Regional Weather Roundup
Issued by NWS Green Bay, WI

Home | Current Version | Previous Version | Graphics & Text | Print | Product List | Glossary Off
Versions: 1 2 3 4 5 6 7 8 9 10 11 12 13 14 15 16 17 18 19 20 21 22 23 24 25 26 27 28 29 30 31 32 33 34 35 36 37 38 39 40 41 42 43 44 45 46 47 48 49 50

000
ASUS43 KGRB 140410
RWRGRB

NORTH-CENTRAL AND NORTHEAST WISCONSIN REGIONAL WEATHER ROUNDUP
NATIONAL WEATHER SERVICE GREEN BAY WI
1100 PM CDT SUN JUL 13 2014

WIZ005-009-010>012-018-019-140500-
NORTH CENTRAL WISCONSIN

CITY           SKY/WX    TMP DP  RH WIND       PRES   REMARKS
IRONWOOD       CLOUDY   N/A N/A N/A NW9       29.83S
MANITOWISH WTR CLOUDY    56  55  98 CALM      29.86F
ARBOR VITAE    CLOUDY    59  49  69 CALM      29.87F
EAGLE RIVER    CLOUDY    57  48  72 CALM      29.87R
LAND O LAKES   CLOUDY    58  51  77 CALM      29.87S
RHINELANDER    PTCLDY    56  50  80 W6        29.88S
PHILLIPS       CLOUDY    60  51  72 CALM      29.88S
ANTIGO         CLEAR     54  50  86 SW6       29.89S
TOMAHAWK       CLOUDY    58  51  77 CALM      29.89S
MERRILL        CLEAR     58  51  79 CALM      29.88F
$$

WIZ013-073-140500-
NORTHEAST WISCONSIN

CITY           SKY/WX    TMP DP  RH WIND       PRES   REMARKS
IRON MOUNTAIN  MOCLDY    57  49  74 CALM      29.84S
MARINETTE      CLEAR     61  46  59 W3        29.84F
OCONTO         PTCLDY    54  50  86 CALM      29.86S
$$

WIZ017-030-035>037-045-140500-
CENTRAL WISCONSIN

CITY           SKY/WX    TMP DP  RH WIND       PRES   REMARKS
MEDFORD        CLOUDY    58  54  85 CALM      29.90S
WAUSAU         CLEAR     64  50  60 SW5       29.87S
MOSINEE        MOCLDY    59  54  82 SW5       29.90S
MARSHFIELD     MOCLDY    61  52  72 W5        29.90R
WISC RAPIDS    CLEAR     57  52  83 S3        29.90F
STEVENS POINT  CLOUDY    60  51  72 CALM      29.90S
WAUPACA        CLEAR     59  53  79 CALM      29.89F
SHAWANO        MOCLDY    63  50  63 CALM      29.88S
CLINTONVILLE   CLEAR     57  50  77 CALM      29.88S
$$

WIZ038-039-048-051-140500-
FOX VALLEY

CITY           SKY/WX    TMP DP  RH WIND       PRES   REMARKS
NWS GREEN BAY  CLEAR     61  52  72 SW3       29.87F
APPLETON       CLEAR     64  46  52 SW5       29.89F
OSHKOSH        CLEAR     64  51  62 SW6       29.89S
FOND DU LAC    CLEAR     57  53  86 SW3       29.90S
$$

WIZ022-050-052-140500-
EAST CENTRAL WISCONSIN

CITY           SKY/WX    TMP DP  RH WIND       PRES   REMARKS
STURGEON BAY   CLEAR     61  48  63 CALM      29.87F
MANITOWOC      CLEAR     60  51  72 W3        29.88F
SHEBOYGAN      CLEAR     58  54  86 W3        29.89S
$$

LMZ563-521-522-541>543-140500-
LAKESHORE

STATION/POSITION TIME  TEMP    WIND        PRES    VSBY  WAVE
                       AIR SEA DIR/SP/G                  HT/PER
                 (UTC) (F)     (DEG/KT/KT) (MB)    (MI)  (FT/S)
SHEBOYGAN LKSHOR 0400   70     280/  4/  5 1011.9F
KEWAUNEE LKSHORE 0400   63     300/  4/  4 1012.3S
NORTHPORT PIER   0400   61     180/  5/  8 1010.8S
N MID LAKE BUOY  0400   61 57  210/ 10/ 12 1010.2S         1
MENOMINEE LKSHOR 0400   67     240/  6/  7 1011.5F
$$



USA.gov is the U.S. government's official web portal to all federal, state and local government web resources and services.